1483470000.5,18589,8.75,72424.3,-13.15,-16.31,-16.37,0,*6D
1483470001.75,18590,8.75,72414.5,-13.19,-16.51,-16.55,0,*6B
1483470002.99,18591,8.75,72414.0,-13.15,-16.45,-16.51,0,*67
1483470004.25,18592,8.75,72404.8,-13.15,-16.51,-16.51,0,*61
1483470005.49,18593,8.75,72406.5,-13.15,-16.59,-16.51,0,*68
1483470006.71,18594,8.75,72424.5,-13.15,-16.59,-16.37,0,*6F
1483470007.93,18595,8.75,72404.0,-13.19,-16.37,-15.95,0,*61
1483470009.14,18596,8.69,72406.3,-13.19,-15.99,-15.63,0,*6C
1483470010.37,18597,8.75,72402.8,-13.15,-15.75,-15.29,0,*6D
1483470011.59,18598,8.75,72410.3,-13.15,-15.49,-15.07,0,*61
1483470012.85,18599,8.75,72400.0,-13.15,-15.21,-14.83,0,*63
1483470014.11,18600,8.75,72420.3,-13.19,-15.01,-14.79,0,*6B
1483470015.36,18601,8.75,72418.8,-13.19,-14.89,-14.51,0,*61
1483470016.59,18602,8.75,72410.8,-13.15,-14.75,-14.33,0,*69
1483470017.81,18603,8.75,72420.3,-13.19,-14.61,-14.23,0,*60
1483470019.03,18604,8.75,72420.8,-13.19,-14.37,-14.11,0,*65
1483470020.25,18605,8.75,72418.3,-13.19,-14.23,-14.11,0,*61
1483470021.5,18606,8.75,72408.5,-13.15,-14.15,-14.01,0,*6A
1483470022.78,18607,8.75,72414.3,-13.15,-14.01,-14.01,0,*6E
1483470024.06,18608,8.75,72416.3,-13.15,-14.01,-13.97,0,*69
1483470025.33,18609,8.75,72414.0,-13.15,-14.01,-13.97,0,*68
1483470026.61,18610,8.75,72410.5,-13.15,-14.01,-14.01,0,*68
1483470027.89,18611,8.75,72408.5,-13.15,-14.01,-13.97,0,*61
1483470029.15,18612,8.75,72410.3,-13.15,-13.87,-13.83,0,*6E
1483470030.42,18613,8.75,72412.3,-13.15,-13.87,-13.97,0,*6A
1483470031.69,18614,8.75,72408.8,-13.15,-13.87,-13.83,0,*68
1483470032.96,18615,8.75,72408.3,-13.15,-13.83,-13.83,0,*6D
1483470034.2,18616,8.75,72408.5,-13.15,-13.73,-13.83,0,*61
1483470035.46,18617,8.75,72410.3,-13.15,-13.87,-13.87,0,*6F
1483470036.73,18618,8.75,72412.0,-13.15,-13.83,-13.83,0,*60
1483470038.0,18619,8.75,72412.5,-13.15,-13.83,-13.83,0,*61
1483470039.3,18620,8.75,72410.3,-13.13,-13.83,-13.87,0,*69
1483470040.59,18621,8.75,72412.3,-13.13,-13.87,-13.87,0,*6C
1483470041.86,18622,8.75,72408.3,-13.15,-13.83,-13.83,0,*69
1483470043.15,18623,8.75,72404.3,-13.13,-14.01,-13.87,0,*67
1483470044.46,18624,8.75,72404.8,-13.13,-13.97,-13.97,0,*69
1483470045.76,18625,8.75,72400.8,-13.13,-14.01,-13.97,0,*60
1483470047.06,18626,8.75,72402.3,-13.13,-13.97,-13.87,0,*6A
1483470048.36,18627,8.75,72398.8,-13.13,-14.01,-13.97,0,*62
1483470049.66,18628,8.75,72404.8,-13.13,-13.97,-14.01,0,*6D
1483470050.97,18629,8.75,72412.0,-13.13,-14.05,-14.01,0,*60
1483470052.27,18630,8.75,72426.0,-13.13,-14.01,-14.01,0,*6C
1483470053.57,18631,8.69,72418.0,-13.13,-14.01,-14.01,0,*6D
1483470054.88,18632,8.69,72418.8,-13.13,-13.97,-14.05,0,*62
1483470056.12,18633,8.75,72404.5,-13.15,-14.01,-14.19,0,*60
1483470057.37,18634,8.75,72404.0,-13.15,-14.01,-14.19,0,*67
1483470058.62,18635,8.75,72404.5,-13.13,-14.15,-14.33,0,*6D
1483470059.91,18636,8.75,72402.8,-13.13,-14.15,-14.47,0,*6D
1483470061.15,18637,8.75,72392.8,-13.13,-14.33,-14.69,0,*64
1483470062.39,18638,8.75,72394.0,-13.15,-14.43,-14.69,0,*6A
1483470063.65,18639,8.69,72398.3,-13.13,-14.61,-14.75,0,*60
1483470064.92,18640,8.75,72370.5,-13.13,-14.69,-14.83,0,*6F
1483470066.2,18641,8.75,72368.8,-13.13,-14.75,-14.75,0,*6A
1483470067.47,18642,8.75,72368.5,-13.13,-14.69,-14.83,0,*6D
1483470068.74,18643,8.75,72378.0,-13.13,-14.61,-14.83,0,*64
1483470070.04,18644,8.75,72380.8,-13.13,-14.83,-14.97,0,*6A
1483470071.33,18645,8.75,72392.0,-13.13,-14.75,-14.97,0,*62
1483470072.61,18646,8.75,72404.0,-13.13,-14.83,-15.07,0,*60
1483470073.85,18647,8.69,72396.8,-13.13,-14.89,-15.15,0,*68
1483470075.1,18648,8.75,72422.3,-13.15,-14.83,-15.15,0,*6B
1483470076.37,18649,8.75,72398.5,-13.13,-14.75,-15.15,0,*65
1483470077.67,18650,8.75,72396.8,-13.13,-14.83,-15.21,0,*63
1483470078.92,18651,8.75,72392.0,-13.15,-14.83,-15.49,0,*6A
1483470080.18,18652,8.75,72394.3,-13.15,-15.01,-15.89,0,*6E
1483470081.43,18653,8.69,72406.0,-13.15,-15.57,-16.59,0,*62
1483470082.69,18654,8.75,72400.8,-13.15,-15.85,-16.51,0,*62
1483470083.93,18655,8.75,72384.0,-13.13,-15.95,-16.37,0,*64
1483470085.2,18656,8.69,72390.3,-13.15,-15.89,-16.23,0,*69
1483470086.42,18657,8.75,72388.0,-13.15,-15.95,-16.37,0,*60
1483470087.63,18658,8.75,72410.5,-13.15,-16.03,-16.45,0,*66
1483470088.87,18659,8.75,72402.5,-13.15,-16.31,-16.75,0,*65
1483470090.09,18660,8.75,72378.0,-13.15,-16.59,-16.97,0,*6D
1483470091.36,18661,8.75,72388.8,-13.15,-16.65,-17.11,0,*6C
1483470092.6,18662,8.75,72394.5,-13.15,-17.07,-17.49,0,*67
1483470093.84,18663,8.75,72396.0,-13.15,-16.93,-17.11,0,*67
1483470095.06,18664,8.75,72402.5,-13.15,-16.89,-16.79,0,*64
1483470096.31,18665,8.75,72384.0,-13.15,-16.65,-16.59,0,*65
1483470097.56,18666,8.75,72390.3,-13.19,-16.37,-16.23,0,*60
1483470098.81,18667,8.75,72390.0,-13.15,-16.17,-15.75,0,*6F
1483470100.05,18668,8.75,72394.0,-13.15,-15.75,-15.21,0,*66
1483470101.27,18669,8.75,72376.5,-13.19,-15.25,-14.89,0,*6D
1483470102.51,18670,8.75,72380.0,-13.15,-14.75,-14.69,0,*63
1483470103.73,18671,8.75,72390.3,-13.19,-14.65,-14.61,0,*67
1483470105.0,18672,8.75,72390.5,-13.15,-14.55,-14.55,0,*6C
1483470106.27,18673,8.75,72384.8,-13.19,-14.55,-14.75,0,*63
1483470107.51,18674,8.75,72396.5,-13.19,-14.61,-14.79,0,*6F
1483470108.75,18675,8.75,72386.5,-13.15,-14.55,-14.69,0,*64
1483470109.99,18676,8.75,72380.0,-13.15,-14.61,-14.75,0,*6D
1483470111.23,18677,8.75,72398.0,-13.15,-14.75,-14.89,0,*6A
1483470112.5,18678,8.75,72406.0,-13.19,-14.79,-15.21,0,*66
1483470113.74,18679,8.75,72410.5,-13.15,-14.97,-15.49,0,*65
1483470115.02,18680,8.75,72420.8,-13.19,-15.39,-15.81,0,*6E
1483470116.24,18681,8.75,72418.0,-13.19,-15.75,-15.95,0,*62
1483470117.51,18682,8.75,72412.3,-13.15,-15.89,-16.09,0,*68
1483470118.78,18683,8.75,72420.0,-13.19,-16.23,-16.65,0,*6C
1483470120.03,18684,8.75,72408.0,-13.15,-16.65,-16.79,0,*68
1483470121.25,18685,8.75,72404.0,-13.19,-16.93,-16.83,0,*69
1483470122.47,18686,8.75,72408.0,-13.19,-16.83,-16.79,0,*6E
1483470123.71,18687,8.75,72408.3,-13.19,-16.69,-16.41,0,*60
1483470124.96,18688,8.75,72382.0,-13.19,-16.23,-15.95,0,*6B
1483470126.19,18689,8.75,72382.5,-13.19,-15.99,-15.89,0,*65
1483470127.41,18690,8.75,72386.0,-13.19,-15.75,-15.67,0,*6F
1483470128.66,18691,8.75,72372.0,-13.15,-15.53,-15.39,0,*6D
1483470129.91,18692,8.75,72378.8,-13.19,-15.53,-15.39,0,*62
1483470131.18,18693,8.69,72376.8,-13.21,-15.53,-15.39,0,*68
1483470132.48,18694,8.69,72378.8,-13.21,-15.43,-15.43,0,*63
1483470133.7,18695,8.75,72378.0,-13.19,-15.63,-15.99,0,*6C
1483470134.94,18696,8.69,72390.0,-13.19,-16.37,-16.27,0,*6B
1483470136.18,18697,8.75,72362.3,-13.19,-16.37,-16.23,0,*6E
1483470137.43,18698,8.75,72364.3,-13.19,-16.37,-16.13,0,*62
1483470138.7,18699,8.75,72360.8,-13.21,-16.13,-15.95,0,*63
1483470139.92,18700,8.75,72364.0,-13.23,-16.03,-15.71,0,*6B
1483470141.19,18701,8.75,72368.5,-13.21,-15.57,-15.07,0,*6B
1483470142.43,18702,8.75,72388.3,-13.23,-15.11,-14.97,0,*60
1483470143.69,18703,8.75,72388.0,-13.23,-14.93,-14.83,0,*6F
1483470144.98,18704,8.75,72402.3,-13.21,-14.93,-14.79,0,*6F
1483470146.27,18705,8.75,72406.8,-13.21,-14.83,-14.93,0,*6B
1483470147.51,18706,8.75,72398.8,-13.21,-15.07,-15.07,0,*69
1483470148.78,18707,8.75,72404.3,-13.21,-15.15,-14.97,0,*63
1483470150.02,18708,8.75,72410.3,-13.21,-15.15,-15.07,0,*64
1483470151.28,18709,8.75,72400.3,-13.21,-15.11,-14.97,0,*69
1483470152.55,18710,8.69,72406.5,-13.21,-15.07,-14.93,0,*62
1483470153.8,18711,8.75,72404.0,-13.21,-14.97,-14.69,0,*6E
1483470155.1,18712,8.75,72394.0,-13.21,-14.83,-14.55,0,*67
1483470156.36,18713,8.75,72380.3,-13.23,-14.79,-14.55,0,*61
1483470157.65,18714,8.75,72380.5,-13.21,-14.55,-14.43,0,*6D
1483470158.95,18715,8.75,72388.3,-13.21,-14.51,-14.51,0,*6B
1483470160.25,18716,8.75,72398.0,-13.21,-14.51,-14.51,0,*68
1483470161.49,18717,8.75,72402.3,-13.19,-14.37,-14.51,0,*62
1483470162.74,18718,8.75,72400.3,-13.19,-14.47,-14.61,0,*69
1483470163.97,18719,8.75,72390.8,-13.19,-14.37,-14.65,0,*6B
1483470165.25,18720,8.75,72372.5,-13.19,-14.47,-14.75,0,*67
1483470166.53,18721,8.75,72378.0,-13.21,-14.79,-14.93,0,*68
1483470167.77,18722,8.75,72376.5,-13.19,-14.93,-15.07,0,*68
1483470169.01,18723,8.75,72352.8,-13.19,-15.07,-15.21,0,*61
1483470170.27,18724,8.75,72360.0,-13.19,-15.21,-15.35,0,*67
1483470171.53,18725,8.75,72356.0,-13.19,-15.21,-15.35,0,*66
1483470172.75,18726,8.75,72376.3,-13.19,-15.11,-15.07,0,*67
1483470174.01,18727,8.75,72398.8,-13.19,-14.93,-15.01,0,*6B
1483470175.27,18728,8.75,72370.8,-13.19,-15.01,-15.01,0,*6E
1483470176.53,18729,8.75,72366.0,-13.19,-15.01,-15.21,0,*6D
1483470177.77,18730,8.75,72364.0,-13.19,-15.35,-15.63,0,*64
1483470179.04,18731,8.75,72370.5,-13.21,-15.71,-15.81,0,*62
1483470180.28,18732,8.75,72370.0,-13.21,-15.67,-15.71,0,*69
1483470181.51,18733,8.69,72374.5,-13.19,-15.53,-15.49,0,*6F
1483470182.78,18734,8.69,72378.8,-13.19,-15.39,-15.39,0,*63
1483470184.03,18735,8.75,72398.3,-13.15,-15.35,-15.49,0,*65
1483470185.28,18736,8.75,72396.8,-13.19,-15.53,-15.81,0,*6E
1483470186.56,18737,8.75,72414.3,-13.21,-16.17,-16.59,0,*61
1483470187.85,18738,8.75,72412.3,-13.21,-16.69,-17.21,0,*69
1483470189.14,18739,8.75,72424.8,-13.21,-17.21,-17.63,0,*63
1483470190.43,18740,8.69,72408.3,-13.21,-17.59,-17.79,0,*69
1483470191.68,18741,8.75,72390.5,-13.21,-17.87,-17.87,0,*6A
1483470192.96,18742,8.75,72400.0,-13.21,-17.93,-17.93,0,*69
1483470194.23,18743,8.75,72404.3,-13.23,-17.93,-17.93,0,*6A
1483470195.49,18744,8.75,72404.5,-13.21,-17.87,-17.79,0,*6E
1483470196.76,18745,8.69,72398.5,-13.21,-17.79,-17.87,0,*6F
1483470198.04,18746,8.75,72402.3,-13.21,-17.79,-17.63,0,*66
1483470199.26,18747,8.75,72402.0,-13.23,-17.73,-17.31,0,*68
1483470200.48,18748,8.75,72402.3,-13.23,-16.97,-16.41,0,*6A
1483470201.7,18749,8.75,72410.3,-13.23,-16.55,-16.03,0,*63
1483470202.94,18750,8.75,72400.0,-13.23,-16.31,-15.95,0,*65
1483470204.19,18751,8.75,72398.8,-13.23,-15.85,-15.25,0,*63
1483470205.43,18752,8.75,72392.3,-13.23,-15.29,-14.93,0,*6A
1483470206.66,18753,8.75,72384.5,-13.23,-14.97,-14.69,0,*6A
1483470207.92,18754,8.75,72376.3,-13.23,-14.79,-14.43,0,*65
1483470209.2,18755,8.75,72378.0,-13.21,-14.51,-14.29,0,*60
1483470210.44,18756,8.75,72384.8,-13.21,-14.23,-14.23,0,*6C
1483470211.69,18757,8.75,72384.0,-13.21,-14.23,-14.15,0,*68
1483470212.94,18758,8.75,72368.5,-13.21,-14.23,-14.23,0,*62
1483470214.18,18759,8.75,72374.0,-13.21,-14.29,-14.29,0,*63
1483470215.41,18760,8.75,72360.8,-13.23,-14.23,-14.23,0,*6B
1483470216.63,18761,8.75,72358.3,-13.23,-14.23,-14.23,0,*6A
1483470217.86,18762,8.75,72360.5,-13.23,-14.15,-14.15,0,*69
1483470219.11,18763,8.75,72370.0,-13.21,-14.15,-14.15,0,*6A
1483470220.34,18764,8.75,72386.3,-13.23,-14.15,-14.15,0,*6F
1483470221.59,18765,8.75,72376.3,-13.21,-14.23,-14.23,0,*6C
1483470222.81,18766,8.75,72378.3,-13.23,-14.15,-14.29,0,*62
1483470224.04,18767,8.75,72372.5,-13.19,-14.23,-14.33,0,*64
1483470225.26,18768,8.75,72374.3,-13.19,-14.19,-14.11,0,*62
1483470226.5,18769,8.75,72376.3,-13.21,-14.23,-14.15,0,*65
1483470227.75,18770,8.75,72380.5,-13.21,-14.23,-14.23,0,*68
1483470229.0,18771,8.69,72384.8,-13.21,-14.15,-14.23,0,*6C
1483470230.25,18772,8.75,72384.0,-13.21,-14.23,-14.29,0,*60
1483470231.5,18773,8.75,72386.5,-13.21,-14.23,-14.29,0,*61
1483470232.74,18774,8.75,72386.3,-13.21,-14.37,-14.37,0,*6C
1483470233.98,18775,8.75,72378.0,-13.21,-14.37,-14.37,0,*6D
1483470235.23,18776,8.75,72394.8,-13.19,-14.33,-14.47,0,*66
1483470236.48,18777,8.75,72398.0,-13.19,-14.47,-14.37,0,*63
1483470237.73,18778,8.75,72392.5,-13.19,-14.47,-14.37,0,*6C
1483470238.98,18779,8.75,72390.0,-13.19,-14.37,-14.47,0,*6D
1483470240.26,18780,8.75,72386.0,-13.19,-14.47,-14.51,0,*6B
1483470241.54,18781,8.75,72390.0,-13.19,-14.47,-14.51,0,*6A
1483470242.79,18782,8.75,72380.5,-13.19,-14.47,-14.61,0,*6A
1483470244.06,18783,8.75,72392.8,-13.21,-14.55,-14.65,0,*67
1483470245.28,18784,8.75,72386.3,-13.19,-14.61,-14.61,0,*68
1483470246.52,18785,8.75,72386.0,-13.19,-14.61,-14.51,0,*6A
1483470247.73,18786,8.75,72402.8,-13.19,-14.65,-14.61,0,*6E
1483470248.95,18787,8.75,72410.8,-13.19,-14.61,-14.61,0,*6B
1483470250.17,18788,8.75,72402.8,-13.19,-14.61,-14.61,0,*64
1483470251.4,18789,8.75,72412.8,-13.19,-14.65,-14.75,0,*64
1483470252.65,18790,8.75,72416.0,-13.19,-14.79,-14.65,0,*60
1483470253.87,18791,8.75,72398.5,-13.19,-14.89,-14.89,0,*6C
1483470255.11,18792,8.75,72358.8,-13.19,-14.89,-15.01,0,*6E
1483470256.37,18793,8.75,72352.3,-13.19,-15.01,-14.93,0,*64
1483470257.63,18794,8.69,72354.5,-13.21,-14.97,-15.07,0,*6A
1483470258.87,18795,8.75,72364.8,-13.19,-15.01,-15.11,0,*69
1483470260.08,18796,8.75,72380.5,-13.15,-15.07,-15.11,0,*60
1483470261.32,18797,8.75,72368.8,-13.19,-15.11,-15.21,0,*69
1483470262.54,18798,8.75,72382.8,-13.19,-15.25,-15.11,0,*62
1483470263.78,18799,8.75,72386.3,-13.19,-15.21,-15.07,0,*60
1483470265.03,18800,8.75,72372.0,-13.19,-15.21,-15.01,0,*69
1483470266.27,18801,8.75,72362.0,-13.19,-15.11,-14.93,0,*61
1483470267.55,18802,8.75,72366.0,-13.21,-14.97,-14.93,0,*66
1483470268.82,18803,8.75,72366.5,-13.21,-14.93,-14.65,0,*6A
1483470270.09,18804,8.75,72372.3,-13.19,-14.75,-14.51,0,*69
1483470271.34,18805,8.75,72374.3,-13.21,-14.65,-14.43,0,*61
1483470272.61,18806,8.75,72370.8,-13.21,-14.55,-14.29,0,*6D
1483470273.86,18807,8.75,72370.3,-13.19,-14.47,-14.33,0,*6F
1483470275.13,18808,8.75,72380.3,-13.21,-14.51,-14.37,0,*68
1483470276.35,18809,8.75,72368.0,-13.19,-14.33,-14.19,0,*6A
1483470277.59,18810,8.69,72372.5,-13.21,-14.29,-14.23,0,*6B
1483470278.81,18811,8.75,72378.5,-13.23,-14.37,-14.23,0,*67
1483470280.06,18812,8.75,72374.8,-13.21,-14.15,-14.23,0,*66
1483470281.31,18813,8.75,72382.8,-13.21,-14.23,-14.29,0,*68
1483470282.53,18814,8.75,72378.5,-13.23,-14.23,-14.15,0,*62
1483470283.78,18815,8.75,72388.5,-13.21,-14.23,-14.15,0,*61
1483470285.02,18816,8.75,72370.0,-13.21,-14.11,-14.11,0,*67
1483470286.27,18817,8.75,72372.5,-13.21,-14.15,-14.23,0,*63
1483470287.52,18818,8.75,72368.8,-13.21,-14.15,-14.11,0,*6D
1483470288.77,18819,8.75,72372.0,-13.19,-14.11,-14.05,0,*66
1483470290.04,18820,8.75,72386.0,-13.21,-14.11,-13.97,0,*6B
1483470291.31,18821,8.75,72390.0,-13.21,-14.05,-14.11,0,*66
1483470292.61,18822,8.69,72384.8,-13.21,-14.05,-13.97,0,*6C
1483470293.89,18823,8.75,72384.8,-13.19,-14.05,-14.01,0,*6E
1483470295.16,18824,8.75,72378.3,-13.19,-14.05,-14.05,0,*6D
1483470296.43,18825,8.75,72378.5,-13.19,-14.05,-14.05,0,*6C
1483470297.68,18826,8.75,72380.5,-13.19,-14.01,-13.93,0,*63
1483470298.96,18827,8.75,72376.0,-13.19,-14.01,-14.01,0,*6E
1483470300.23,18828,8.75,72370.3,-13.19,-14.01,-14.05,0,*65
1483470301.51,18829,8.75,72366.0,-13.15,-13.97,-13.97,0,*6C
1483470302.79,18830,8.75,72364.3,-13.19,-14.05,-14.01,0,*6C
1483470303.99,18831,8.75,72386.8,-13.19,-13.93,-13.93,0,*69
1483470305.27,18832,8.75,72392.5,-13.19,-14.05,-14.01,0,*6E
1483470306.55,18833,8.75,72350.8,-13.15,-14.01,-14.01,0,*67
1483470307.83,18834,8.75,72378.8,-13.15,-13.97,-13.97,0,*60
1483470309.11,18835,8.75,72384.8,-13.15,-13.97,-13.97,0,*61
1483470310.35,18836,8.75,72390.0,-13.19,-13.93,-14.05,0,*66
1483470311.63,18837,8.75,72370.3,-13.15,-13.97,-13.97,0,*63
1483470312.9,18838,8.69,72390.8,-13.15,-14.01,-13.97,0,*64
1483470314.18,18839,8.75,72386.3,-13.19,-14.05,-14.05,0,*61
1483470315.46,18840,8.75,72382.8,-13.19,-14.01,-14.01,0,*6F
1483470316.73,18841,8.75,72394.0,-13.19,-14.01,-14.05,0,*6A
1483470318.01,18842,8.75,72392.8,-13.19,-14.05,-14.01,0,*69
1483470319.26,18843,8.69,72378.0,-13.15,-14.11,-14.05,0,*65
1483470320.47,18844,8.75,72382.0,-13.19,-14.11,-14.11,0,*6B
1483470321.75,18845,8.75,72402.3,-13.15,-14.05,-14.05,0,*66
1483470323.0,18846,8.75,72390.3,-13.15,-14.05,-14.15,0,*64
1483470324.25,18847,8.75,72392.3,-13.19,-14.11,-14.05,0,*6D
1483470325.52,18848,8.75,72402.3,-13.15,-14.01,-14.01,0,*6B
1483470326.8,18849,8.75,72400.0,-13.15,-14.05,-14.01,0,*6E
1483470328.05,18850,8.75,72388.3,-13.15,-14.01,-14.15,0,*67
1483470329.28,18851,8.75,72382.5,-13.15,-14.15,-14.19,0,*6F
1483470330.5,18852,8.75,72396.0,-13.15,-14.15,-14.29,0,*6F
1483470331.72,18853,8.75,72400.3,-13.15,-14.33,-14.33,0,*61
1483470333.0,18854,8.75,72402.8,-13.15,-14.47,-14.47,0,*66
1483470334.26,18855,8.75,72410.3,-13.15,-14.43,-14.43,0,*67
1483470335.54,18856,8.75,72400.3,-13.15,-14.47,-14.43,0,*60
1483470336.78,18857,8.75,72408.5,-13.15,-14.55,-14.33,0,*65
1483470338.03,18858,8.75,72416.8,-13.15,-14.47,-14.33,0,*69
1483470339.27,18859,8.75,72408.8,-13.15,-14.43,-14.29,0,*67
1483470340.52,18860,8.69,72410.3,-13.15,-14.43,-14.29,0,*6D
1483470341.73,18861,8.75,72412.8,-13.15,-14.29,-14.19,0,*63
1483470342.95,18862,8.75,72420.3,-13.15,-14.33,-14.29,0,*68
1483470344.17,18863,8.69,72420.0,-13.19,-14.37,-14.37,0,*6E
1483470345.42,18864,8.75,72422.8,-13.19,-14.47,-14.37,0,*6E
1483470346.64,18865,8.75,72416.8,-13.15,-14.29,-14.29,0,*64
1483470347.86,18866,8.75,72408.5,-13.19,-14.37,-14.37,0,*6B
1483470349.08,18867,8.75,72402.3,-13.19,-14.37,-14.23,0,*6F
1483470350.3,18868,8.75,72408.5,-13.15,-14.33,-14.19,0,*61
1483470351.52,18869,8.75,72414.8,-13.15,-14.19,-14.19,0,*68
1483470352.74,18870,8.75,72406.8,-13.15,-14.33,-14.19,0,*68
1483470353.98,18871,8.75,72402.3,-13.15,-14.43,-14.29,0,*6D
1483470355.2,18872,8.75,72400.0,-13.15,-14.29,-14.29,0,*62
1483470356.41,18873,8.75,72404.0,-13.15,-14.29,-14.19,0,*60
1483470357.64,18874,8.75,72414.5,-13.15,-14.19,-14.15,0,*68
1483470358.88,18875,8.75,72432.5,-13.15,-14.29,-14.05,0,*6B
1483470360.11,18876,8.75,72416.8,-13.19,-14.23,-14.23,0,*6A
1483470361.33,18877,8.75,72400.8,-13.19,-14.37,-14.23,0,*6E
1483470362.55,18878,8.75,72392.0,-13.15,-14.29,-14.33,0,*63
1483470363.76,18879,8.75,72382.5,-13.15,-14.29,-14.19,0,*6A
1483470364.99,18880,8.75,72356.3,-13.19,-14.23,-14.23,0,*63
1483470366.2,18881,8.75,72332.8,-13.15,-14.29,-14.19,0,*6D
1483470367.43,18882,8.75,72360.3,-13.19,-14.23,-14.37,0,*64
1483470368.65,18883,8.75,72370.8,-13.19,-14.33,-14.23,0,*61
1483470369.86,18884,8.75,72378.3,-13.15,-14.29,-14.19,0,*68
1483470371.08,18885,8.69,72390.8,-13.15,-14.29,-14.29,0,*6A
1483470372.3,18886,8.75,72390.8,-13.19,-14.33,-14.37,0,*61
1483470373.52,18887,8.75,72376.8,-13.15,-14.29,-14.29,0,*68
1483470374.74,18888,8.75,72376.8,-13.15,-14.19,-14.29,0,*64
1483470375.96,18889,8.75,72388.0,-13.19,-14.33,-14.33,0,*6A
1483470377.17,18890,8.75,72394.0,-13.19,-14.33,-14.37,0,*66
1483470378.4,18891,8.75,72396.3,-13.19,-14.23,-14.33,0,*62
1483470379.62,18892,8.75,72396.8,-13.19,-14.23,-14.23,0,*60
1483470380.85,18893,8.75,72394.5,-13.19,-14.23,-14.33,0,*60
1483470382.07,18894,8.75,72396.5,-13.15,-14.15,-14.19,0,*66
1483470383.29,18895,8.75,72394.5,-13.19,-14.23,-14.11,0,*66
1483470384.51,18896,8.75,72392.5,-13.19,-14.33,-14.19,0,*6C
1483470385.73,18897,8.75,72396.0,-13.15,-14.19,-14.19,0,*69
1483470386.95,18898,8.75,72406.5,-13.15,-14.15,-14.19,0,*6A
1483470388.18,18899,8.75,72412.3,-13.19,-14.23,-14.23,0,*6B
1483470389.4,18900,8.75,72408.5,-13.19,-14.23,-14.19,0,*63
1483470390.62,18901,8.75,72398.5,-13.19,-14.33,-14.19,0,*63
1483470391.84,18902,8.75,72392.5,-13.19,-14.19,-14.19,0,*68
1483470393.06,18903,8.75,72390.3,-13.19,-14.11,-14.11,0,*69
1483470394.28,18904,8.75,72388.0,-13.19,-14.11,-14.11,0,*6E
1483470395.49,18905,8.69,72382.8,-13.19,-14.19,-14.11,0,*67
1483470396.77,18906,8.75,72376.8,-13.15,-14.05,-14.05,0,*60
1483470398.02,18907,8.75,72378.3,-13.19,-14.11,-14.05,0,*68
1483470399.24,18908,8.75,72380.5,-13.19,-14.19,-14.19,0,*62
1483470400.46,18909,8.75,72388.8,-13.19,-14.19,-14.11,0,*6B
1483470401.71,18910,8.75,72392.0,-13.15,-14.05,-14.15,0,*66
1483470402.93,18911,8.75,72402.0,-13.19,-14.19,-14.23,0,*63
1483470404.16,18912,8.75,72398.5,-13.15,-14.15,-14.29,0,*6A
1483470405.38,18913,8.75,72400.3,-13.15,-14.19,-14.33,0,*6C
1483470406.64,18914,8.75,72398.8,-13.19,-14.47,-14.37,0,*68
1483470407.89,18915,8.75,72394.0,-13.15,-14.47,-14.29,0,*6A
1483470409.14,18916,8.75,72390.5,-13.19,-14.51,-14.23,0,*68
1483470410.36,18917,8.75,72402.3,-13.19,-14.37,-14.19,0,*60
1483470411.58,18918,8.75,72398.5,-13.19,-14.23,-14.33,0,*62
1483470412.8,18919,8.75,72394.3,-13.19,-14.11,-14.11,0,*62
1483470414.02,18920,8.75,72376.8,-13.19,-14.23,-14.19,0,*61
1483470415.25,18921,8.75,72386.3,-13.15,-14.15,-14.15,0,*65
1483470416.47,18922,8.75,72388.0,-13.19,-14.23,-14.23,0,*6A
1483470417.69,18923,8.75,72392.3,-13.19,-14.11,-14.19,0,*63
1483470418.91,18924,8.69,72378.5,-13.19,-14.19,-14.11,0,*64
1483470420.13,18925,8.75,72364.3,-13.15,-14.19,-14.19,0,*61
1483470421.38,18926,8.75,72366.3,-13.15,-14.19,-14.05,0,*6F
1483470422.6,18927,8.75,72372.0,-13.19,-14.11,-14.19,0,*67
1483470423.88,18928,8.75,72374.3,-13.15,-14.05,-14.01,0,*68
1483470425.16,18929,8.75,72382.5,-13.15,-14.01,-13.97,0,*65
1483470426.44,18930,8.75,72390.3,-13.15,-14.01,-13.97,0,*6D
1483470427.68,18931,8.75,72392.0,-13.19,-14.05,-13.93,0,*60
1483470428.96,18932,8.75,72394.0,-13.15,-14.01,-14.01,0,*67
1483470430.24,18933,8.75,72392.8,-13.19,-14.05,-14.01,0,*6E
1483470431.5,18934,8.75,72394.8,-13.15,-13.87,-13.87,0,*61
1483470432.77,18935,8.75,72394.5,-13.19,-14.01,-13.87,0,*65
1483470434.01,18936,8.75,72394.3,-13.19,-14.01,-13.93,0,*63
1483470435.25,18937,8.75,72394.5,-13.15,-13.93,-13.87,0,*67
1483470436.53,18938,8.75,72394.8,-13.15,-14.01,-13.97,0,*65
1483470437.8,18939,8.75,72392.0,-13.15,-13.97,-13.97,0,*6C
1483470439.08,18940,8.75,72388.0,-13.15,-13.97,-13.97,0,*62
1483470440.36,18941,8.75,72390.5,-13.15,-13.97,-13.97,0,*63
1483470441.64,18942,8.75,72392.3,-13.15,-13.97,-13.97,0,*60
1483470442.92,18943,8.75,72384.8,-13.15,-14.01,-13.97,0,*69
1483470444.19,18944,8.75,72386.8,-13.19,-14.05,-14.05,0,*6A
1483470445.46,18945,8.75,72402.0,-13.15,-13.97,-13.87,0,*66
1483470446.74,18946,8.75,72398.5,-13.15,-13.97,-13.97,0,*64
1483470448.02,18947,8.75,72366.8,-13.15,-13.97,-14.01,0,*6D
1483470449.29,18948,8.75,72354.0,-13.15,-13.97,-13.87,0,*6B
1483470450.56,18949,8.75,72358.0,-13.15,-14.01,-13.87,0,*62
1483470451.84,18950,8.75,72366.0,-13.15,-14.01,-13.97,0,*6B
1483470453.11,18951,8.75,72370.8,-13.15,-14.01,-14.01,0,*62
1483470454.39,18952,8.75,72378.0,-13.15,-14.01,-13.97,0,*69
1483470455.67,18953,8.75,72378.5,-13.15,-13.97,-14.01,0,*68
1483470456.95,18954,8.75,72380.8,-13.15,-14.01,-14.01,0,*67
1483470458.22,18955,8.75,72384.5,-13.15,-14.01,-14.01,0,*66
1483470459.5,18956,8.75,72386.8,-13.15,-14.01,-14.01,0,*65
1483470460.78,18957,8.75,72390.5,-13.19,-14.05,-14.05,0,*68
1483470462.05,18958,8.75,72394.0,-13.15,-14.01,-14.01,0,*6B
1483470463.33,18959,8.75,72384.0,-13.15,-14.01,-14.01,0,*6A
1483470464.61,18960,8.75,72388.0,-13.15,-13.97,-14.01,0,*68
1483470465.89,18961,8.75,72382.0,-13.15,-14.01,-13.97,0,*69
1483470467.16,18962,8.75,72386.8,-13.15,-14.01,-14.05,0,*66
1483470468.43,18963,8.75,72384.3,-13.15,-14.05,-14.05,0,*63
1483470469.71,18964,8.75,72388.8,-13.15,-14.05,-14.01,0,*60
1483470470.99,18965,8.75,72380.3,-13.15,-14.01,-14.01,0,*65
1483470472.27,18966,8.75,72386.0,-13.15,-14.01,-13.97,0,*6E
1483470473.54,18967,8.75,72388.5,-13.15,-13.97,-14.01,0,*6F
1483470474.82,18968,8.75,72392.8,-13.15,-14.01,-13.97,0,*60
1483470476.1,18969,8.75,72396.3,-13.15,-14.01,-13.97,0,*61
1483470477.38,18970,8.75,72398.3,-13.15,-14.01,-14.01,0,*61
1483470478.66,18971,8.75,72398.8,-13.15,-13.97,-14.01,0,*68
1483470479.93,18972,8.75,72398.8,-13.15,-14.01,-14.01,0,*63
1483470481.21,18973,8.75,72390.3,-13.15,-14.01,-14.01,0,*62
1483470482.43,18974,8.75,72402.8,-13.19,-14.19,-14.19,0,*69
1483470483.66,18975,8.75,72402.5,-13.15,-14.19,-14.19,0,*64
1483470484.87,18976,8.75,72396.8,-13.15,-14.29,-14.29,0,*67
1483470486.09,18977,8.75,72396.5,-13.15,-14.19,-14.19,0,*66
1483470487.32,18978,8.75,72384.8,-13.15,-14.19,-14.19,0,*69
1483470488.54,18979,8.75,72384.8,-13.19,-14.23,-14.33,0,*65
1483470489.76,18980,8.75,72386.5,-13.15,-14.19,-14.29,0,*6D
1483470490.98,18981,8.75,72384.3,-13.15,-14.33,-14.33,0,*6F
1483470492.26,18982,8.75,72390.5,-13.19,-14.47,-14.47,0,*60
1483470493.54,18983,8.75,72390.0,-13.15,-14.47,-14.47,0,*6D
1483470494.78,18984,8.75,72386.0,-13.15,-14.55,-14.69,0,*65
1483470496.03,18985,8.75,72386.3,-13.19,-14.75,-14.65,0,*66
1483470497.24,18986,8.75,72370.5,-13.15,-14.69,-14.61,0,*60
1483470498.48,18987,8.75,72374.5,-13.19,-14.65,-14.51,0,*62
1483470499.73,18988,8.75,72374.8,-13.15,-14.47,-14.33,0,*65